Location: Newark
(22.3000°N, 114.2000°E)
Time: 22:38:22
(UTC+00:00)

Hubble Space Telescope - Pass Details

Date: 23 October 2019
Orbit: 536 x 540 km, 28.5° (Epoch: 20 November)

Event Time Altitude Azimuth Distance (km) Brightness Sun altitude
Rises 21:32:29 0° 215° (SW) 2,662 4.0 -12.4°
Reaches altitude 10° 21:35:15 10° 196° (SSW) 1,772 3.3 -11.7°
Maximum altitude 21:38:09 19° 151° (SSE) 1,316 3.2 -11.1°
Drops below altitude 10° 21:41:03 10° 106° (ESE) 1,774 5.0 -10.4°
Sets 21:43:49 0° 88° (E) 2,666 6.3 -9.8°
